Location: Hopewell Observatory
(38.8698°N, 77.6988°W)
Time: 18:42:49
(UTC-04:00)

Daily predictions for brighter satellites

Satellite Brightness Start Highest point End
(mag) Time Altitude Azimuth Time Altitude Azimuth Time Altitude Azimuth
Meteor 1-20 Rocket 4.2 20:17:21 10° S 20:22:54 78° E 20:28:24 10° NNE
NOSS 3-1 (A) 3.6 20:18:10 10° SW 20:23:51 78° NW 20:30:17 10° NNE
Okean 1 3.6 20:22:21 10° N 20:26:14 48° E 20:30:05 10° SSE
Cosmos 1452 Rocket 3.6 20:22:12 10° S 20:27:20 56° ESE 20:32:31 10° NNE
Cosmos 405 Rocket 3.5 20:24:45 10° NNW 20:28:31 55° W 20:32:20 10° S
Cosmos 1536 4.5 20:27:34 10° SE 20:30:04 16° E 20:32:36 10° NE
Cosmos 1420 Rocket 4.4 20:25:54 10° S 20:30:41 40° ESE 20:35:30 10° NE
Cosmos 1633 2.5 20:27:34 10° S 20:31:06 62° E 20:34:42 10° NNE
Lacrosse 5 rocket 1.5 20:28:20 10° NNW 20:31:55 50° NE 20:35:40 10° ESE
Cosmos 407 Rocket 3.6 20:27:41 10° NNW 20:33:03 86° WSW 20:38:22 10° SSE
S3M 4.5 20:29:21 10° N 20:35:15 42° ENE 20:41:12 10° SSE
YAOGAN 6 4.3 20:34:31 10° ESE 20:36:46 16° ENE 20:39:02 10° NNE
Cosmos 1190 Rocket 4.4 20:31:34 10° NNW 20:36:49 71° WSW 20:42:04 10° S
Cosmos 1553 Rocket 4.3 20:31:52 10° N 20:37:47 47° ENE 20:43:34 10° SSE
Cosmos 1782 Rocket 4.2 20:34:23 10° SSW 20:38:39 59° W 20:42:57 10° N
Cosmos 921 Rocket 3.4 20:35:04 10° SSW 20:39:13 67° WNW 20:43:23 10° N
Cosmos 2360 Rocket 3.6 20:39:50 10° SE 20:43:03 16° E 20:46:18 10° ENE
Cosmos 1980 Rocket 2.8 20:38:08 10° SW 20:43:41 62° WNW 20:49:15 10° NNE
Helios 1B rocket 3.9 20:41:18 10° NE 20:44:11 18° E 20:47:00 10° SE
Resurs 01 Rocket 1.6 20:40:21 10° SSE 20:44:48 81° ENE 20:49:16 10° N
Tiangong 1 2.0 20:50:28 10° WNW 20:53:04 34° N 20:55:23 12° ENE
Cosmos 676 Rocket 4.1 20:48:01 10° NNW 20:53:21 85° WSW 20:58:41 10° SSE
SeaSat 1 2.4 20:50:21 10° NNE 20:55:17 68° ESE 21:00:10 10° SSW
Cosmos 1975 Rocket 4.1 20:51:41 10° NNW 20:56:00 50° W 21:00:16 10° SSW
CZ-2D R/B 3.8 20:52:34 10° S 20:56:23 60° W 21:00:13 10° NNW
Meteor 1-13 Rocket 4.4 20:51:10 10° N 20:57:05 60° ENE 21:02:56 10° SSE
Cosmos 2151 Rocket 3.5 20:53:06 10° S 20:57:27 69° E 21:01:50 10° NNE
Meteor 2-4 Rocket 4.1 20:53:43 10° N 20:59:00 43° ENE 21:03:48 13° SE
DELTA 2 R/B(2) 4.3 20:57:21 10° W 20:59:12 28° SSW 20:59:42 23° SSE
Lacrosse 5 2.5 20:56:13 10° S 21:00:44 33° ESE 21:05:17 10° ENE
Cosmos 44 3.2 20:56:34 10° NNW 21:01:01 81° WSW 21:05:16 12° SSE
NOSS 2-3 (C) 3.9 20:57:00 10° SSW 21:01:27 50° ESE 21:06:30 10° NE
DELTA 2 R/B (1) 3.8 20:58:22 10° W 21:03:53 62° SSW 21:07:58 18° SE
Spot 2 Rocket 3.7 20:59:35 10° S 21:04:41 76° WSW 21:09:48 10° NNW
Cosmos 1140 Rocket 3.5 21:00:17 10° NNW 21:05:33 85° ENE 21:10:47 10° SSE
EXPRESS MD2 3.8 21:03:41 10° WSW 21:06:07 45° NNW 21:10:06 10° NE
Atlas Centaur 2 3.4 21:03:02 10° WSW 21:10:44 44° S 21:15:23 20° ESE
Cosmos 614 Rocket 3.9 21:06:11 10° NNW 21:11:19 82° ENE 21:15:50 14° SSE
Cosmos 1954 Rocket 4.4 21:09:41 10° NNW 21:14:58 66° WSW 21:20:14 10° S
CZ-4B DEB 3.8 21:16:27 24° ENE 21:16:27 24° ENE 21:18:50 10° NNE
Cosmos 1536 Rocket 3.4 21:15:58 10° N 21:20:19 88° E 21:24:03 14° S
Helios 1A 3.0 21:21:40 24° SSE 21:24:04 60° ENE 21:28:16 10° N
Meteor 1-29 3.3 21:23:43 10° NNE 21:26:58 40° E 21:27:14 39° ESE
SAR-Lupe-4 4.4 21:27:40 31° E 21:28:04 32° ENE 21:31:18 10° N
ERS-1 Rocket 3.5 21:26:24 27° ESE 21:28:29 40° ENE 21:33:10 10° N
Cosmos 1741 Rocket 3.9 21:25:08 10° NNW 21:30:24 76° ENE 21:33:28 25° SSE
H-2A R/B 3.4 21:29:52 19° E 21:30:50 20° ENE 21:34:25 10° NNE
USA 186 4.1 21:29:41 10° SSW 21:32:28 24° W 21:35:17 10° NW
BREEZE M DEB (TANK) 3.3 21:23:17 10° SW 21:33:14 50° SSE 21:34:57 29° E
Envisat 3.8 21:28:55 10° S 21:33:50 51° W 21:38:47 10° NNW
Meteor 1-11 Rocket 4.1 21:28:14 10° SSW 21:34:04 71° W 21:39:50 10° N
ATLAS 3B R/B 3.5 21:28:53 10° NNW 21:34:58 34° NE 21:38:06 23° E
GPS 2-05 Rocket1 3.1 21:32:22 10° W 21:35:35 44° S 21:35:41 44° S
NOSS 2-3 (D) 4.0 21:36:34 10° SW 21:41:10 75° NW 21:46:31 10° NNE
ARGOS 3.6 21:45:46 35° ESE 21:47:16 44° ENE 21:52:20 10° N
Terra 3.9 21:50:12 13° ENE 21:50:12 13° ENE 21:52:06 10° NE
Cosmos 883 Rocket 4.4 21:46:07 10° N 21:52:16 89° E 21:56:04 25° S
Cosmos 2322 Rocket 3.1 21:46:58 10° SW 21:52:29 50° WNW 21:58:01 10° NNE
Cosmos 2263 Rocket 2.1 21:47:42 10° NNW 21:53:26 87° WSW 21:55:53 36° SSE
Delta 2 Rocket 4.2 21:54:27 10° SW 21:57:46 38° S 21:57:46 38° S
Meteor 1-23 Rocket 4.2 21:54:16 10° NNW 21:59:50 78° W 22:02:41 30° S
Cosmos 1844 Rocket 4.0 21:56:34 10° N 22:01:10 25° NE 22:02:00 24° ENE
Cosmos 1244 Rocket 4.5 21:59:55 38° SSE 22:02:07 60° E 22:08:08 10° NNE
Cosmos 1110 Rocket 3.8 21:58:42 18° SSW 22:02:36 83° ESE 22:07:47 10° NNE
SL-16 R/B 3.5 21:57:58 10° SW 22:03:16 40° WNW 22:08:37 10° N
ATLAS 2AS CENTAUR R/B 3.1 21:59:47 10° SW 22:07:27 78° NW 22:15:37 10° NNE
Cosmos 1515 4.1 22:04:51 10° N 22:07:55 51° NNE 22:07:55 51° NNE
YAOGAN 6 4.5 22:08:46 21° SW 22:10:06 26° W 22:13:08 10° NW
Lacrosse 5 rocket 3.5 22:08:34 10° W 22:10:47 15° WSW 22:11:31 14° SW
Cosmos 2322 3.5 22:08:48 24° SSW 22:12:19 79° ESE 22:18:00 10° NNE
Cosmos 2219 Rocket 4.1 22:16:11 15° ENE 22:16:11 15° ENE 22:17:22 10° NE
Cosmos 1331 Rocket 4.0 22:14:52 28° SSW 22:17:39 81° WNW 22:22:54 10° NNE
Okean 1 Rocket 4.4 22:15:27 15° SW 22:18:42 38° WNW 22:22:48 10° N
Helios 1B rocket 4.1 22:15:52 10° N 22:19:31 32° WNW 22:23:10 10° SW
Cosmos 1238 Rocket 4.0 22:13:28 10° N 22:20:11 65° E 22:21:21 55° SE
COSMOS 2428 3.2 22:22:19 42° ENE 22:22:19 42° ENE 22:26:36 10° NE
MetOp-B 4.2 22:19:54 52° S 22:21:12 76° WSW 22:26:35 10° NNW
Cosmos 1500 4.2 22:24:18 42° N 22:24:18 42° N 22:26:57 10° N
Cosmos 1607 4.1 22:18:29 10° NW 22:24:54 68° WSW 22:26:39 48° S
Okean 1-7 Rocket 4.0 22:21:43 10° NNW 22:26:08 58° W 22:26:35 55° WSW
Cosmos 2360 Rocket 2.5 22:20:50 10° SSW 22:26:25 65° WNW 22:32:01 10° NNE
Aureole 3 Rocket 4.2 22:18:48 10° N 22:27:22 71° E 22:28:50 56° SE
YAOGAN 11 4.4 22:28:58 59° NNE 22:28:58 59° NNE 22:32:34 10° N
Tiangong 1 4.0 22:25:53 10° WNW 22:26:22 14° WNW 22:26:22 14° WNW
Cosmos 2315 Rocket 4.3 22:23:07 10° NNW 22:29:16 63° W 22:31:51 36° SSW
SPOT 1/Viking Rocket 3.5 22:31:56 70° ENE 22:31:56 70° ENE 22:37:03 10° N
Cosmos 1025 Rocket 3.9 22:28:37 10° NNW 22:32:40 43° W 22:32:56 43° WSW
Cosmos 2333 Rocket 4.1 22:38:20 16° NE 22:38:20 16° NE 22:39:39 10° NE
SPOT 5 2.8 22:35:22 81° WNW 22:35:22 81° WNW 22:40:00 10° NNW
Lacrosse 5 3.1 22:38:51 10° WSW 22:43:37 40° NW 22:48:24 10° NNE
BREEZE-M DEB 4.4 22:41:27 10° NW 22:46:59 32° N 22:46:59 32° N
USA 245 4.4 22:47:46 54° WSW 22:47:53 54° W 22:52:25 10° NNW
H-2A R/B 4.3 22:50:04 17° NNE 22:50:04 17° NNE 22:51:35 10° NNE
Nimbus 7 Rocket 4.2 22:42:38 10° NNE 22:48:32 87° ESE 22:48:39 86° SSE
Cosmos 1745 Rocket 3.8 22:55:56 81° NE 22:55:56 81° NE 23:01:51 10° N
Cosmos 2237 Rocket 4.4 23:00:30 14° NE 23:00:30 14° NE 23:01:18 10° NE
Atlas Centaur 2 3.9 22:53:15 10° WSW 22:58:00 27° SW 22:58:00 27° SW
NOSS 3-2 (A) 4.1 22:57:56 10° NNW 23:05:25 62° NE 23:06:18 58° E
USA 238 DEB 3.6 22:59:04 10° NW 23:06:11 78° WSW 23:06:30 77° SSW
USA 238 3.6 22:59:09 10° NW 23:06:17 79° WSW 23:06:37 77° SSW
H-2A R/B 2.9 23:10:30 43° W 23:10:30 43° W 23:14:44 10° NNW
ATLAS 3B R/B 3.2 23:19:28 10° NW 23:25:20 47° WSW 23:25:20 47° WSW
Terra 3.3 23:29:05 34° NNW 23:29:05 34° NNW 23:31:52 10° NNW
Cosmos 2278 Rocket 3.3 23:31:26 10° NNW 23:35:15 39° N 23:35:15 39° N
NOSS 3-2 (C) 4.0 23:35:36 10° NNW 23:42:56 78° NNE 23:42:56 78° NNE
Cosmos 1844 Rocket 3.9 23:39:51 10° NW 23:43:39 37° WNW 23:43:39 37° WNW
